Location: Oshawa
(43.9000°N, 78.8670°W)
Time: 14:13:24
(UTC-04:00)

Cosmos 1707 Rocket - Visible Passes

Search period start: 25 October 2014 00:00
Search period end: 03 November 2014 23:00
Orbit: 608 x 632 km, 82.5° (Epoch: 25 October)

Date Brightness Start Highest point End Pass type
(mag) Time Alt. Az. Time Alt. Az. Time Alt. Az.
25 Oct 6.2 18:41:02 10° SW 18:44:32 23° WNW 18:48:04 10° NNW visible
26 Oct 6.6 19:00:25 10° W 19:02:31 13° WNW 19:04:37 10° NW visible
30 Oct 6.6 18:33:40 10° W 18:35:27 12° WNW 18:37:14 10° NW visible
